GFSNGP_prec_snow_129.txt.gz
Snowfall_Accumulation
0.0 0.0 0.0 0.0 0.0 0.0 0.0 0.3 0.6 0.0 0.1 2.4 0.0 0.0 0.0 0.0 0.0 0.0 0.0 0.0 0.0 0.0 0.0 0.0 0.0 0.0 0.0 0.0 0.0 0.0 0.0 0.0 0.0 0.0 0.0 0.0 0.0 0.0 0.0 0.0 0.0 0.0 0.0 0.0
0.4 0.0 0.0 0.0 0.0 0.0 0.0 0.0 0.0 0.0 0.0 0.0 0.0 0.0 0.0 0.0 0.0 0.0 0.0 0.0 0.0 0.0 0.0 0.0 0.0 0.0 0.0 0.0 0.0 0.0 0.0 0.0 0.0 0.0 0.0 0.0 0.0 0.0 0.0 0.0 0.0 0.0 0.0 0.0
0.8 0.1 0.3 0.1 0.0 0.0 0.0 0.0 0.0 0.0 0.2 0.0 0.0 0.0 0.0 0.0 0.0 0.0 0.0 0.0 0.0 0.0 0.0 0.0 0.0 0.0 0.0 0.0 0.0 0.0 0.0 0.0 0.0 0.0 0.0 0.0 0.0 0.0 0.0 0.0 0.0 0.0 0.0 0.0
2.7 0.7 2.3 0.1 0.0 0.0 0.2 0.0 0.0 0.0 0.0 0.0 0.0 0.0 0.0 0.0 0.0 0.0 0.0 0.0 0.0 0.0 0.0 0.0 0.0 0.0 0.0 0.0 0.0 0.0 0.0 0.0 0.0 0.0 0.0 0.0 0.0 0.0 0.0 0.0 0.1 0.0 0.0 0.0
3.9 2.2 0.0 0.3 0.2 0.5 0.4 0.5 0.4 0.4 0.0 0.0 0.0 0.0 0.0 0.0 0.0 0.0 0.0 0.0 0.0 0.0 0.0 0.0 0.0 0.0 0.0 0.0 0.0 0.0 0.0 0.0 0.0 0.0 0.0 0.0 0.0 0.0 0.0 0.0 0.0 0.0 0.0 0.0
4.2 3.9 1.5 1.4 0.7 0.0 0.0 3.7 2.3 0.7 0.0 0.0 0.0 0.6 0.1 0.0 0.0 0.0 0.0 0.0 0.0 0.0 0.0 0.0 0.0 0.0 0.0 0.0 0.0 0.0 0.0 0.0 0.0 0.0 0.0 0.0 0.0 0.0 0.0 0.0 0.0 0.0 0.0 0.0
4.7 7.9 3.2 1.5 0.0 0.0 2.2 7.8 1.3 0.4 1.7 2.7 1.9 1.2 0.0 0.0 0.0 0.0 0.0 0.0 0.0 0.0 0.0 0.0 0.0 0.0 0.0 0.0 0.0 0.0 0.0 0.0 0.0 0.0 0.0 0.0 0.0 0.0 0.0 0.0 0.0 0.2 0.1 0.0
8.7 7.9 6.5 1.3 0.4 4.3 2.4 0.9 0.9 1.1 1.6 5.7 0.7 0.0 0.0 0.0 0.0 0.0 0.0 0.0 0.0 0.0 0.0 0.0 0.0 0.0 0.0 0.0 0.0 0.0 0.0 0.0 0.0 0.0 0.0 0.0 0.0 0.0 0.0 0.1 0.2 0.0 0.2 0.2
7.5 6.3 3.6 2.1 2.3 2.4 1.9 1.5 1.7 2.3 0.9 0.4 0.0 0.0 0.0 0.0 0.0 0.0 0.0 0.0 0.0 0.0 0.0 0.0 0.0 0.0 0.0 0.0 0.0 0.0 0.0 0.0 0.0 0.0 0.0 0.0 0.0 0.0 0.0 0.0 0.1 0.1 0.4 0.5
6.4 4.3 1.9 3.2 1.6 2.0 2.6 2.6 1.1 0.0 0.0 0.0 0.0 0.0 0.0 0.0 0.0 0.0 0.0 0.0 0.0 0.0 0.0 0.0 0.0 0.0 0.0 0.0 0.0 0.0 0.0 0.0 0.0 0.0 0.0 0.0 0.1 0.1 0.0 0.0 0.2 0.5 1.5 2.2
11.8 11.6 1.5 2.5 3.3 3.5 2.8 1.4 1.5 0.0 0.0 0.0 0.0 0.0 0.0 0.0 0.0 0.0 0.0 0.0 0.0 0.3 0.2 0.0 0.0 0.0 0.0 0.0 0.1 0.1 0.1 0.0 1.3 0.0 0.2 0.1 0.0 0.0 0.2 1.5 2.1 2.4 2.6 5.0
10.4 7.1 8.7 6.4 8.5 4.7 2.5 0.6 0.0 0.0 0.0 0.0 0.0 0.0 0.0 0.0 0.0 0.0 0.0 0.0 0.0 0.0 0.1 0.1 0.0 0.0 0.3 0.3 0.3 0.3 1.9 2.6 5.4 2.9 9.5 5.8 6.0 6.8 6.2 5.6 5.3 8.6 10.5 11.4
2.7 2.9 4.1 4.7 0.0 0.0 0.8 1.6 1.2 0.0 0.3 0.0 0.0 0.0 0.0 0.0 0.0 0.8 0.7 0.5 1.0 0.5 0.6 0.5 0.4 0.1 0.3 0.4 0.7 0.7 1.5 2.1 4.8 6.1 9.6 12.5 14.8 10.9 11.8 12.5 11.7 12.9 8.7 6.8
0.0 0.0 0.0 0.0 1.1 0.0 0.0 0.0 0.6 0.0 0.0 0.0 0.0 0.0 0.0 0.0 1.4 3.1 3.6 3.8 3.2 1.3 1.5 0.9 0.4 1.4 5.1 5.1 6.1 6.2 6.2 8.8 9.4 11.8 15.1 17.9 17.1 18.1 18.6 15.7 10.1 12.6 12.5 12.6
0.0 0.0 0.1 0.0 0.0 0.0 0.0 0.0 0.0 0.0 0.0 0.0 0.0 0.0 0.0 0.5 2.5 3.1 10.4 11.7 7.7 10.2 13.4 12.0 11.7 16.1 16.4 15.6 15.1 15.1 13.2 13.2 13.4 15.0 14.7 15.6 17.3 17.5 16.5 15.7 14.9 13.7 13.2 10.3
0.0 0.0 0.0 0.0 0.0 0.0 0.0 0.0 0.0 0.0 0.0 0.0 0.0 0.0 0.0 1.5 3.4 3.6 5.9 9.5 10.8 14.7 17.2 16.9 18.0 18.8 15.9 14.3 12.0 11.6 11.3 9.8 7.8 7.6 9.8 11.1 11.1 11.9 13.0 13.2 13.0 13.0 12.0 11.8
0.0 0.0 0.0 0.1 0.0 0.0 0.0 0.0 0.0 0.0 0.0 0.0 0.1 0.0 0.1 0.4 2.1 4.9 9.2 9.6 11.2 12.8 13.2 11.7 12.1 9.7 7.8 7.4 6.7 6.1 5.8 6.0 5.1 4.6 4.8 4.9 7.0 8.0 9.2 9.6 9.4 9.3 9.0 8.4
0.0 0.0 0.0 0.0 0.0 0.0 0.0 0.0 0.0 0.0 0.1 0.1 0.4 0.7 1.7 4.0 6.4 10.6 13.8 13.5 9.1 7.8 8.7 8.2 6.1 4.6 4.1 4.5 4.0 3.5 3.1 3.1 3.3 3.5 3.3 3.6 4.8 5.0 5.1 5.2 5.3 4.9 5.2 5.1
0.0 0.0 0.0 0.0 0.0 0.0 0.0 0.0 0.3 0.2 1.7 2.2 3.6 6.3 7.5 9.1 8.7 8.1 7.7 7.7 7.9 6.6 7.2 4.3 3.2 2.3 2.2 2.5 2.2 2.5 2.6 2.9 2.6 2.5 2.4 2.3 2.8 3.1 4.6 4.2 3.6 3.8 3.5 3.2
0.0 0.0 0.0 0.0 0.0 0.0 0.4 1.2 1.6 2.9 4.3 4.0 4.2 5.7 5.6 6.4 5.5 5.5 4.7 4.7 4.4 3.6 2.3 2.4 1.9 1.7 1.6 1.3 0.8 1.1 1.3 1.6 2.1 2.3 2.7 3.1 3.6 3.1 3.1 2.2 2.8 2.9 2.4 2.6
0.0 0.1 0.0 0.0 0.8 1.6 2.3 3.7 3.3 4.7 6.6 5.3 4.1 5.2 6.0 7.9 7.3 6.4 4.8 3.0 3.3 2.4 2.0 1.6 1.0 0.9 0.5 0.8 0.7 1.1 2.0 2.4 2.6 3.4 2.8 2.8 2.4 2.3 1.9 2.3 2.1 1.6 2.1 2.0
5.1 5.7 4.8 4.3 4.2 5.7 6.2 6.0 4.5 4.9 5.1 5.7 6.4 6.2 5.9 6.9 6.4 5.3 3.9 3.0 2.9 2.1 1.6 1.2 0.8 0.8 0.8 0.6 1.3 1.8 1.8 2.2 1.8 1.6 1.7 1.9 2.0 1.9 1.4 1.4 1.6 1.4 1.5 1.3
7.8 8.3 8.8 7.7 6.8 7.8 8.4 7.3 7.3 6.1 6.4 6.4 6.2 6.1 5.1 5.4 4.2 2.9 2.5 2.2 1.6 1.6 1.4 1.3 1.1 1.1 1.0 1.5 2.1 2.0 2.0 1.6 1.5 1.4 1.5 1.6 1.7 1.9 1.6 1.4 1.3 1.2 1.3 1.1
7.7 6.9 7.5 7.4 6.3 4.4 5.6 7.4 6.1 5.9 5.2 6.0 5.1 4.9 3.8 3.4 3.4 2.4 1.7 1.8 1.7 1.6 1.3 1.5 1.0 0.8 1.2 1.9 1.8 1.4 1.6 1.2 1.3 1.4 1.3 0.9 1.6 1.5 1.6 1.4 1.3 1.0 0.9 0.9
6.2 5.4 5.0 5.0 4.5 5.3 4.6 4.6 4.1 4.7 4.7 5.7 5.0 4.0 3.0 2.0 1.7 2.5 1.7 2.2 1.9 1.5 1.6 1.3 0.7 0.9 1.2 1.5 1.6 1.3 1.6 1.4 1.3 1.6 1.7 1.6 1.4 1.5 1.3 1.2 1.2 1.2 1.1 0.9
5.9 6.0 5.4 4.7 4.7 4.3 3.8 3.8 4.3 5.3 4.5 4.6 4.1 3.5 2.9 2.5 2.4 1.9 1.6 1.4 0.9 1.0 1.6 1.7 1.2 1.1 1.5 1.2 1.3 1.0 1.4 1.3 1.2 1.3 1.4 1.3 1.3 1.3 1.2 1.2 1.3 1.0 1.1 1.1
5.1 4.7 3.5 3.6 3.9 3.9 3.8 4.0 3.7 4.2 4.0 3.9 3.9 3.0 2.6 2.6 2.4 2.5 1.9 1.9 1.8 1.7 1.8 1.8 1.4 1.2 1.1 1.3 1.5 1.4 1.3 1.1 0.5 1.2 1.0 1.2 1.4 1.5 1.6 1.6 1.6 1.6 1.6 1.8

GFSNGP_prec_snow_132.txt.gz
Snowfall_Accumulation
0.0 0.0 0.0 0.0 0.0 0.0 0.0 0.3 0.6 0.0 0.1 2.4 0.0 0.0 0.0 0.0 0.0 0.0 0.0 0.0 0.0 0.0 0.0 0.0 0.0 0.0 0.0 0.0 0.0 0.0 0.0 0.0 0.0 0.0 0.0 0.0 0.0 0.0 0.0 0.0 0.0 0.0 0.0 0.0
0.4 0.0 0.0 0.0 0.0 0.0 0.0 0.1 0.0 0.0 0.0 0.0 0.0 0.0 0.0 0.0 0.0 0.0 0.0 0.0 0.0 0.0 0.0 0.0 0.0 0.0 0.0 0.0 0.0 0.0 0.0 0.0 0.0 0.0 0.0 0.0 0.0 0.0 0.0 0.0 0.0 0.0 0.0 0.0
0.8 0.1 0.3 0.1 0.1 0.0 0.8 0.3 0.1 0.0 0.3 0.0 0.0 0.0 0.0 0.0 0.0 0.0 0.0 0.0 0.0 0.0 0.0 0.0 0.0 0.0 0.0 0.0 0.0 0.0 0.0 0.0 0.0 0.0 0.0 0.0 0.0 0.0 0.0 0.0 0.0 0.0 0.0 0.0
2.7 0.7 2.3 0.1 0.0 0.0 1.1 0.3 0.0 0.0 0.0 0.0 0.0 0.0 0.0 0.0 0.0 0.0 0.0 0.0 0.0 0.0 0.0 0.0 0.0 0.0 0.0 0.0 0.0 0.0 0.0 0.0 0.0 0.0 0.0 0.0 0.0 0.0 0.0 0.0 0.1 0.0 0.0 0.0
3.9 2.2 0.0 0.3 0.2 0.5 0.8 0.5 0.4 0.5 0.0 0.0 0.0 0.0 0.0 0.0 0.0 0.0 0.0 0.0 0.0 0.0 0.0 0.0 0.0 0.0 0.0 0.0 0.0 0.0 0.0 0.0 0.0 0.0 0.0 0.0 0.0 0.0 0.0 0.0 0.0 0.0 0.0 0.0
4.2 4.1 1.5 1.4 0.7 0.0 0.0 4.1 2.3 0.8 0.1 0.0 0.0 0.6 0.1 0.0 0.0 0.0 0.0 0.0 0.0 0.0 0.0 0.0 0.0 0.0 0.0 0.0 0.0 0.0 0.0 0.0 0.0 0.0 0.0 0.0 0.0 0.0 0.0 0.0 0.0 0.0 0.0 0.0
4.7 8.5 3.8 1.5 0.0 0.0 2.2 7.8 1.3 0.7 2.1 3.1 2.5 1.7 0.1 0.0 0.0 0.0 0.0 0.0 0.0 0.0 0.0 0.0 0.0 0.0 0.0 0.0 0.0 0.0 0.0 0.0 0.0 0.0 0.0 0.0 0.0 0.0 0.0 0.0 0.0 0.2 0.1 0.0
8.7 7.9 6.5 1.3 0.4 4.3 2.9 1.4 1.6 1.8 2.6 6.9 1.7 0.4 0.0 0.0 0.0 0.0 0.0 0.0 0.0 0.0 0.0 0.0 0.0 0.0 0.0 0.0 0.0 0.0 0.0 0.0 0.0 0.0 0.0 0.0 0.0 0.0 0.0 0.1 0.2 0.0 0.2 0.2
7.8 6.7 3.9 2.4 2.7 3.0 2.7 2.5 2.7 3.4 2.0 0.4 0.4 0.0 0.0 0.0 0.0 0.0 0.0 0.0 0.0 0.0 0.0 0.0 0.0 0.0 0.0 0.0 0.0 0.0 0.0 0.0 0.0 0.0 0.0 0.0 0.0 0.0 0.0 0.0 0.1 0.1 0.4 0.5
6.4 4.7 2.0 3.6 1.9 2.2 3.1 3.2 1.4 0.0 0.0 0.0 0.0 0.0 0.0 0.0 0.0 0.0 0.0 0.0 0.0 0.0 0.0 0.0 0.0 0.0 0.0 0.0 0.0 0.0 0.0 0.0 0.0 0.0 0.0 0.0 0.1 0.1 0.0 0.0 0.2 0.5 1.5 2.2
11.8 11.7 1.7 2.9 3.4 3.6 2.8 1.4 1.5 0.0 0.0 0.0 0.0 0.0 0.0 0.0 0.0 0.0 0.0 0.0 0.0 0.3 0.2 0.0 0.0 0.0 0.0 0.0 0.1 0.1 0.1 0.0 1.3 0.0 0.2 0.1 0.0 0.0 0.2 1.5 2.1 2.4 2.6 5.0
10.4 7.1 8.9 6.4 8.5 4.7 2.5 0.6 0.0 0.0 0.0 0.0 0.0 0.0 0.0 0.1 0.0 0.0 0.0 0.0 0.0 0.0 0.1 0.1 0.0 0.0 0.3 0.3 0.3 0.4 1.9 2.6 5.4 2.9 9.5 5.8 6.0 6.8 6.2 5.6 5.3 8.6 10.5 11.4
2.7 2.9 4.1 4.7 0.0 0.0 0.8 1.6 1.2 0.0 0.3 0.0 0.0 0.0 0.0 0.0 0.0 0.8 0.7 0.5 1.0 0.5 0.6 0.5 0.4 0.1 0.4 0.4 0.7 0.7 1.5 2.1 4.8 6.1 9.6 12.6 14.8 10.9 11.8 12.5 13.1 14.8 11.1 9.9
0.0 0.0 0.0 0.0 1.1 0.0 0.0 0.0 0.6 0.0 0.0 0.0 0.0 0.0 0.0 0.1 1.5 3.1 3.6 3.8 3.2 1.3 1.5 0.9 0.4 1.4 5.2 5.1 6.1 6.2 6.2 8.9 9.4 11.8 15.3 17.9 17.1 18.2 18.6 15.7 11.2 14.5 14.9 15.8
0.0 0.0 0.1 0.0 0.0 0.0 0.0 0.0 0.0 0.0 0.0 0.0 0.0 0.0 0.0 0.6 2.6 3.1 10.5 11.7 7.7 10.2 13.4 12.0 11.7 16.1 16.6 15.6 15.1 15.3 13.2 13.7 14.0 15.6 15.4 16.1 17.5 17.5 16.5 16.3 16.1 15.7 15.5 12.8
0.0 0.0 0.0 0.0 0.0 0.0 0.0 0.0 0.0 0.0 0.0 0.0 0.0 0.0 0.0 1.5 3.4 3.6 5.9 9.5 10.8 14.7 17.2 16.9 18.0 18.9 16.0 14.3 12.0 11.9 11.6 10.2 8.5 8.2 10.4 11.8 11.5 12.3 13.5 13.8 14.1 14.6 13.9 14.1
0.0 0.0 0.0 0.1 0.0 0.0 0.0 0.0 0.0 0.0 0.0 0.0 0.1 0.0 0.1 0.4 2.1 4.9 9.2 9.6 11.2 12.8 13.2 11.7 12.2 9.8 7.8 7.4 6.7 6.4 6.3 6.3 5.5 5.3 5.5 5.8 7.7 8.6 9.8 10.6 10.7 10.9 11.3 11.4
0.0 0.0 0.0 0.0 0.0 0.0 0.0 0.0 0.0 0.0 0.1 0.1 0.4 0.7 1.7 4.0 6.5 10.6 13.8 13.5 9.1 7.8 8.7 8.3 6.2 4.6 4.1 4.5 4.0 3.5 3.4 3.6 3.9 4.5 4.0 4.1 5.4 5.9 5.8 6.0 6.3 6.3 7.1 7.6
0.0 0.0 0.0 0.0 0.0 0.0 0.0 0.0 0.3 0.2 1.7 2.2 3.6 6.3 7.5 9.1 8.8 8.2 7.8 7.7 7.9 6.6 7.2 4.3 3.2 2.4 2.2 2.5 2.2 2.5 2.6 3.1 3.0 3.0 3.1 2.9 3.4 3.9 5.3 5.0 4.6 4.9 4.9 5.0
0.0 0.0 0.0 0.0 0.0 0.0 0.4 1.2 1.6 2.9 4.3 4.0 4.2 5.7 5.6 6.5 5.6 5.6 4.8 4.8 4.4 3.7 2.3 2.5 2.0 1.9 1.6 1.3 0.8 1.1 1.3 1.6 2.3 2.7 3.2 3.6 4.1 3.8 3.9 3.1 3.7 4.0 3.5 3.8
0.0 0.1 0.0 0.0 0.8 1.6 2.3 3.7 3.3 4.7 6.6 5.3 4.1 5.2 6.1 8.0 7.3 6.4 4.8 3.0 3.3 2.4 2.1 1.6 1.1 1.1 0.6 0.8 0.7 1.1 2.0 2.4 2.6 3.5 3.1 3.1 2.8 2.8 2.4 2.8 2.8 2.4 3.0 2.9
5.1 5.7 4.8 4.3 4.2 5.7 6.2 6.0 4.5 4.9 5.1 5.7 6.4 6.2 5.9 6.9 6.4 5.3 3.9 3.0 2.9 2.2 1.7 1.4 1.0 1.0 0.9 0.6 1.3 1.8 1.8 2.2 1.8 1.6 1.7 2.0 2.2 2.2 1.8 1.8 2.1 1.8 1.9 1.6
7.8 8.3 8.8 7.7 6.8 7.8 8.4 7.3 7.3 6.1 6.4 6.4 6.2 6.1 5.1 5.6 4.2 2.9 2.5 2.2 1.6 1.7 1.5 1.5 1.3 1.2 1.0 1.5 2.2 2.0 2.0 1.6 1.5 1.4 1.5 1.7 1.8 2.0 1.7 1.5 1.5 1.5 1.4 1.2
7.7 6.9 7.5 7.4 6.3 4.4 5.6 7.4 6.1 5.9 5.2 6.0 5.1 4.9 3.8 3.4 3.4 2.4 1.8 1.8 1.7 1.7 1.4 1.7 1.3 1.0 1.2 1.9 1.8 1.5 1.7 1.2 1.4 1.4 1.3 0.9 1.7 1.5 1.6 1.4 1.3 1.0 0.9 0.9
6.2 5.4 5.0 5.0 4.5 5.3 4.6 4.6 4.1 4.7 4.7 5.7 5.0 4.0 3.0 2.0 1.8 2.5 1.7 2.2 1.9 1.5 1.6 1.4 0.8 1.1 1.4 1.6 1.6 1.3 1.6 1.4 1.3 1.6 1.7 1.6 1.4 1.5 1.3 1.2 1.2 1.2 1.1 0.9
5.9 6.0 5.4 4.7 4.7 4.3 3.8 3.8 4.3 5.3 4.5 4.6 4.1 3.5 2.9 2.5 2.4 2.0 1.6 1.4 0.9 1.0 1.6 1.8 1.3 1.2 1.6 1.4 1.4 1.0 1.4 1.3 1.2 1.3 1.4 1.3 1.3 1.3 1.2 1.2 1.3 1.0 1.1 1.1
5.1 4.7 3.5 3.6 3.9 3.9 3.8 4.0 3.7 4.2 4.0 3.9 3.9 3.0 2.6 2.6 2.4 2.5 1.9 1.9 1.8 1.7 1.8 1.8 1.5 1.2 1.1 1.3 1.5 1.4 1.3 1.1 0.5 1.2 1.0 1.2 1.4 1.5 1.6 1.6 1.6 1.6 1.6 1.8

GFSNGP_prec_snow_135.txt.gz
Snowfall_Accumulation
0.0 0.0 0.0 0.0 0.0 0.0 0.0 0.3 0.7 0.0 0.1 2.4 0.1 0.0 0.0 0.0 0.0 0.0 0.0 0.0 0.0 0.0 0.0 0.0 0.0 0.0 0.0 0.0 0.0 0.0 0.0 0.0 0.0 0.0 0.0 0.0 0.0 0.0 0.0 0.0 0.0 0.0 0.0 0.0
0.4 0.0 0.0 0.0 0.0 0.0 0.0 0.1 0.1 0.0 0.0 0.0 0.0 0.0 0.0 0.0 0.0 0.0 0.0 0.0 0.0 0.0 0.0 0.0 0.0 0.0 0.0 0.0 0.0 0.0 0.0 0.0 0.0 0.0 0.0 0.0 0.0 0.0 0.0 0.0 0.0 0.0 0.0 0.0
0.8 0.1 0.3 0.1 0.1 0.0 1.3 2.0 0.4 0.0 0.7 0.0 0.0 0.0 0.0 0.0 0.0 0.0 0.0 0.0 0.0 0.0 0.0 0.0 0.0 0.0 0.0 0.0 0.0 0.0 0.0 0.0 0.0 0.0 0.0 0.0 0.0 0.0 0.0 0.0 0.0 0.0 0.0 0.0
2.7 0.7 2.3 0.1 0.0 0.0 1.7 0.9 0.0 0.1 0.0 0.0 0.0 0.0 0.0 0.0 0.0 0.0 0.0 0.0 0.0 0.0 0.0 0.0 0.0 0.0 0.0 0.0 0.0 0.0 0.0 0.0 0.0 0.0 0.0 0.0 0.0 0.0 0.0 0.0 0.1 0.0 0.0 0.0
4.0 2.2 0.0 0.3 0.2 0.5 0.9 0.7 0.5 0.6 0.1 0.0 0.0 0.0 0.2 0.0 0.0 0.0 0.0 0.0 0.0 0.0 0.0 0.0 0.0 0.0 0.0 0.0 0.0 0.0 0.0 0.0 0.0 0.0 0.0 0.0 0.0 0.0 0.0 0.0 0.0 0.0 0.0 0.0
4.2 4.2 1.6 1.4 0.7 0.0 0.0 4.3 2.3 1.0 0.1 0.0 0.0 0.8 0.3 0.0 0.0 0.0 0.0 0.0 0.0 0.0 0.0 0.0 0.0 0.0 0.0 0.0 0.0 0.0 0.0 0.0 0.0 0.0 0.0 0.0 0.0 0.0 0.0 0.0 0.0 0.0 0.0 0.0
4.7 8.5 3.8 1.5 0.0 0.0 2.2 7.8 1.3 0.9 2.4 3.3 2.8 2.2 0.4 0.0 0.0 0.0 0.0 0.0 0.0 0.0 0.0 0.0 0.0 0.0 0.0 0.0 0.0 0.0 0.0 0.0 0.0 0.0 0.0 0.0 0.0 0.0 0.0 0.0 0.0 0.2 0.1 0.0
8.7 7.9 6.5 1.3 0.4 4.3 3.1 1.6 1.8 2.1 3.0 7.2 2.4 0.4 0.0 0.0 0.0 0.0 0.0 0.0 0.0 0.0 0.0 0.0 0.0 0.0 0.0 0.0 0.0 0.0 0.0 0.0 0.0 0.0 0.0 0.0 0.0 0.0 0.0 0.1 0.2 0.0 0.2 0.2
7.8 6.7 3.9 2.4 2.7 3.3 3.1 2.9 2.9 3.6 2.3 0.4 0.4 0.0 0.0 0.0 0.0 0.0 0.0 0.0 0.0 0.0 0.0 0.0 0.0 0.0 0.0 0.0 0.0 0.0 0.0 0.0 0.0 0.0 0.0 0.0 0.0 0.0 0.0 0.0 0.1 0.1 0.4 0.5
6.4 4.7 2.0 3.6 2.0 2.2 3.1 3.2 1.6 0.0 0.0 0.0 0.0 0.0 0.0 0.0 0.0 0.0 0.0 0.0 0.0 0.0 0.0 0.0 0.0 0.0 0.0 0.0 0.0 0.0 0.0 0.0 0.0 0.0 0.0 0.0 0.1 0.1 0.0 0.0 0.2 0.5 1.5 2.2
11.8 11.7 1.7 3.1 3.4 3.6 2.8 1.4 1.5 0.0 0.0 0.0 0.0 0.0 0.0 0.0 0.0 0.0 0.0 0.0 0.0 0.3 0.2 0.0 0.0 0.0 0.0 0.0 0.1 0.1 0.1 0.0 1.3 0.0 0.2 0.1 0.0 0.0 0.2 1.5 2.1 2.4 2.6 5.0
10.4 7.1 8.9 6.4 8.5 4.7 2.5 0.6 0.0 0.0 0.0 0.0 0.0 0.0 0.0 0.1 0.0 0.0 0.0 0.0 0.0 0.0 0.1 0.1 0.0 0.0 0.3 0.3 0.3 0.4 1.9 2.6 5.5 2.9 9.6 5.8 6.0 6.8 6.2 5.6 5.3 8.6 10.5 11.4
2.7 2.9 4.1 4.7 0.0 0.0 0.8 1.6 1.2 0.0 0.3 0.0 0.0 0.0 0.0 0.0 0.0 0.8 0.7 0.5 1.0 0.5 0.6 0.5 0.4 0.1 0.4 0.4 0.7 0.7 1.5 2.1 4.8 6.1 9.6 12.6 14.8 11.0 11.8 12.5 13.1 14.8 11.3 10.1
0.0 0.0 0.0 0.0 1.1 0.0 0.0 0.0 0.6 0.0 0.0 0.0 0.0 0.0 0.0 0.1 1.5 3.1 3.6 3.8 3.2 1.3 1.5 0.9 0.4 1.4 5.2 5.1 6.1 6.2 6.2 8.9 9.5 11.9 15.4 18.0 17.2 18.2 18.6 15.7 11.3 14.8 15.5 16.6
0.0 0.0 0.1 0.0 0.0 0.0 0.0 0.0 0.0 0.0 0.0 0.0 0.0 0.0 0.0 0.6 2.6 3.2 10.5 11.7 7.7 10.2 13.4 12.0 11.7 16.1 16.6 15.6 15.1 15.3 13.2 13.9 14.3 16.0 15.8 16.4 17.7 17.6 16.5 16.3 16.1 15.7 15.5 13.7
0.0 0.0 0.0 0.0 0.0 0.0 0.0 0.0 0.0 0.0 0.0 0.0 0.0 0.0 0.0 1.6 3.4 3.6 5.9 9.5 10.8 14.7 17.2 16.9 18.0 18.9 16.1 14.3 12.0 11.9 11.6 10.4 8.8 8.6 10.8 12.4 12.2 12.5 13.5 13.9 14.1 14.6 14.3 14.8
0.0 0.0 0.0 0.1 0.0 0.0 0.0 0.0 0.0 0.0 0.0 0.0 0.1 0.0 0.1 0.4 2.1 4.9 9.2 9.6 11.2 12.8 13.3 11.8 12.3 9.8 7.8 7.4 6.7 6.4 6.3 6.3 5.9 5.7 5.9 6.3 8.3 8.9 10.0 10.7 10.9 11.2 11.9 12.2
0.0 0.0 0.0 0.0 0.0 0.0 0.0 0.0 0.0 0.0 0.1 0.1 0.4 0.7 1.7 4.0 6.5 10.7 13.9 13.6 9.1 7.8 8.7 8.3 6.3 4.6 4.1 4.5 4.0 3.5 3.4 3.6 4.2 5.0 4.6 4.7 5.9 6.3 6.0 6.2 6.7 6.7 7.7 8.5
0.0 0.0 0.0 0.0 0.0 0.0 0.0 0.0 0.3 0.2 1.7 2.2 3.6 6.3 7.5 9.1 8.9 8.3 7.8 7.7 7.9 6.6 7.2 4.3 3.3 2.4 2.2 2.5 2.2 2.5 2.6 3.1 3.0 3.2 3.4 3.3 3.8 4.4 5.6 5.3 5.0 5.5 5.6 5.8
0.0 0.0 0.0 0.0 0.0 0.0 0.4 1.2 1.6 2.9 4.3 4.0 4.2 5.7 5.6 6.5 5.6 5.6 4.8 4.8 4.4 3.8 2.4 2.5 2.1 1.9 1.6 1.3 0.8 1.1 1.3 1.6 2.3 2.8 3.4 3.9 4.5 4.2 4.4 3.6 4.2 4.6 4.3 4.7
0.0 0.1 0.0 0.0 0.8 1.6 2.3 3.7 3.3 4.7 6.6 5.3 4.1 5.2 6.1 8.1 7.3 6.4 4.8 3.0 3.3 2.4 2.1 1.7 1.2 1.2 0.6 0.9 0.7 1.1 2.0 2.4 2.7 3.5 3.2 3.4 3.1 3.1 2.8 3.2 3.2 3.0 3.7 3.7
5.1 5.7 4.8 4.3 4.2 5.7 6.2 6.0 4.5 4.9 5.1 5.7 6.4 6.2 5.9 6.9 6.4 5.3 3.9 3.0 2.9 2.2 1.8 1.5 1.2 1.1 1.0 0.7 1.4 1.9 1.8 2.2 1.8 1.7 1.8 2.1 2.4 2.5 2.1 2.2 2.5 2.3 2.4 2.2
7.8 8.3 8.8 7.7 6.8 7.8 8.4 7.3 7.3 6.1 6.4 6.4 6.2 6.1 5.1 5.6 4.2 3.0 2.5 2.2 1.6 1.7 1.5 1.6 1.5 1.4 1.2 1.6 2.3 2.1 2.1 1.7 1.6 1.5 1.6 1.8 1.9 2.1 1.8 1.7 1.8 1.8 1.8 1.5
7.7 6.9 7.5 7.4 6.3 4.4 5.6 7.4 6.1 5.9 5.2 6.0 5.1 4.9 3.9 3.5 3.4 2.4 1.8 1.8 1.7 1.7 1.5 1.8 1.4 1.1 1.3 2.1 1.9 1.6 1.8 1.3 1.5 1.4 1.4 0.9 1.7 1.5 1.6 1.4 1.3 1.1 1.0 1.0
6.2 5.4 5.0 5.0 4.5 5.3 4.6 4.6 4.1 4.7 4.7 5.7 5.0 4.0 3.0 2.0 1.8 2.5 1.7 2.2 1.9 1.5 1.6 1.4 0.9 1.1 1.5 1.7 1.7 1.3 1.6 1.4 1.3 1.6 1.7 1.6 1.4 1.5 1.3 1.2 1.2 1.2 1.1 0.9
5.9 6.0 5.4 4.7 4.7 4.3 3.8 3.8 4.3 5.3 4.5 4.6 4.1 3.5 2.9 2.5 2.4 2.0 1.6 1.4 0.9 1.0 1.6 1.8 1.4 1.3 1.6 1.4 1.4 1.1 1.4 1.3 1.2 1.3 1.4 1.3 1.3 1.3 1.2 1.2 1.3 1.0 1.1 1.1
5.1 4.7 3.5 3.6 3.9 3.9 3.8 4.0 3.7 4.2 4.0 3.9 3.9 3.0 2.6 2.6 2.4 2.5 1.9 1.9 1.8 1.7 1.8 1.8 1.5 1.3 1.2 1.4 1.6 1.4 1.3 1.1 0.5 1.2 1.0 1.2 1.4 1.5 1.6 1.6 1.6 1.6 1.6 1.8

GFSNGP_prec_snow_138.txt.gz
Snowfall_Accumulation
0.0 0.0 0.0 0.0 0.0 0.0 0.0 0.3 0.7 0.0 0.3 2.4 0.1 0.8 0.0 0.0 0.0 0.7 1.4 1.6 0.0 3.3 2.6 1.6 0.9 0.5 0.0 0.0 0.0 0.0 0.0 0.0 0.0 0.0 0.0 0.0 0.0 0.0 0.0 0.0 0.0 0.0 0.0 0.0
0.4 0.0 0.0 0.0 0.0 0.0 0.0 0.1 0.1 0.0 0.3 0.0 0.0 0.0 0.0 0.0 0.0 0.0 0.1 0.0 0.1 0.0 0.0 0.1 0.0 0.0 0.0 0.0 0.0 0.0 0.0 0.0 0.0 0.0 0.0 0.0 0.0 0.0 0.0 0.0 0.0 0.0 0.0 0.0
0.8 0.1 0.3 0.1 0.1 0.0 1.5 2.0 1.7 0.6 0.8 0.0 0.0 0.1 0.1 0.0 0.0 0.0 0.0 0.0 0.0 0.0 0.0 0.0 0.0 0.0 0.0 0.0 0.0 0.0 0.0 0.0 0.0 0.0 0.0 0.0 0.0 0.0 0.0 0.0 0.0 0.0 0.0 0.0
2.7 0.7 2.3 0.1 0.0 0.0 1.7 0.9 0.0 0.1 0.0 0.0 0.0 0.3 0.2 0.0 0.0 0.0 0.0 0.0 0.0 0.0 0.0 0.0 0.0 0.0 0.0 0.0 0.0 0.0 0.0 0.0 0.0 0.0 0.0 0.0 0.0 0.0 0.0 0.0 0.1 0.0 0.0 0.0
4.0 2.2 0.0 0.3 0.2 0.5 1.0 1.0 0.5 0.6 0.1 0.0 0.0 0.5 0.8 0.0 0.0 0.0 0.0 0.0 0.0 0.0 0.0 0.0 0.0 0.0 0.0 0.0 0.0 0.0 0.0 0.0 0.0 0.0 0.0 0.0 0.0 0.0 0.0 0.0 0.0 0.0 0.0 0.0
4.2 4.2 1.7 1.4 0.7 0.0 0.0 4.6 2.3 1.0 0.2 0.1 0.0 0.8 0.7 0.1 0.0 0.0 0.0 0.0 0.0 0.0 0.0 0.0 0.0 0.0 0.0 0.0 0.0 0.0 0.0 0.0 0.0 0.0 0.0 0.0 0.0 0.0 0.0 0.0 0.0 0.0 0.0 0.0
4.7 8.5 3.8 1.5 0.0 0.0 2.2 7.8 1.4 1.0 2.6 3.5 3.2 2.9 0.8 0.1 0.0 0.0 0.0 0.0 0.0 0.0 0.0 0.0 0.0 0.0 0.0 0.0 0.0 0.0 0.0 0.0 0.0 0.0 0.0 0.0 0.0 0.0 0.0 0.0 0.0 0.2 0.1 0.0
8.7 7.9 6.5 1.3 0.4 4.3 3.1 1.6 2.1 2.5 3.3 7.4 2.4 0.4 0.0 0.0 0.0 0.0 0.0 0.0 0.0 0.0 0.0 0.0 0.0 0.0 0.0 0.0 0.0 0.0 0.0 0.0 0.0 0.0 0.0 0.0 0.0 0.0 0.0 0.1 0.2 0.0 0.2 0.2
7.8 6.7 3.9 2.4 2.7 3.3 3.2 3.0 3.3 3.8 2.3 0.4 0.4 0.0 0.0 0.0 0.0 0.0 0.0 0.0 0.0 0.0 0.0 0.0 0.0 0.0 0.0 0.0 0.0 0.0 0.0 0.0 0.0 0.0 0.0 0.0 0.0 0.0 0.0 0.0 0.1 0.1 0.4 0.5
6.4 4.7 2.0 3.6 2.0 2.2 3.1 3.2 1.6 0.0 0.0 0.0 0.0 0.0 0.0 0.0 0.0 0.0 0.0 0.0 0.0 0.0 0.0 0.0 0.0 0.0 0.0 0.0 0.0 0.0 0.0 0.0 0.0 0.0 0.0 0.0 0.1 0.1 0.0 0.0 0.2 0.5 1.5 2.2
11.8 11.7 1.7 3.1 3.4 3.6 2.8 1.4 1.5 0.0 0.0 0.0 0.0 0.0 0.0 0.0 0.0 0.0 0.0 0.0 0.0 0.3 0.2 0.0 0.0 0.0 0.0 0.0 0.1 0.1 0.1 0.0 1.3 0.0 0.2 0.1 0.0 0.0 0.2 1.5 2.1 2.4 2.6 5.0
10.4 7.1 8.9 6.4 8.5 4.7 2.5 0.6 0.0 0.0 0.0 0.0 0.0 0.0 0.0 0.1 0.0 0.0 0.0 0.0 0.0 0.0 0.1 0.1 0.0 0.0 0.3 0.3 0.3 0.4 1.9 2.6 5.5 2.9 9.6 5.8 6.0 6.8 6.2 5.6 5.3 8.6 10.5 11.4
2.7 2.9 4.1 4.7 0.0 0.0 0.8 1.6 1.2 0.0 0.3 0.0 0.0 0.0 0.0 0.1 0.0 0.8 0.7 0.5 1.0 0.5 0.6 0.5 0.4 0.1 0.4 0.4 0.7 0.7 1.5 2.1 4.8 6.1 9.6 12.6 14.8 11.0 11.8 12.5 13.1 14.8 11.3 10.2
0.0 0.0 0.0 0.0 1.1 0.0 0.0 0.0 0.6 0.0 0.0 0.0 0.0 0.0 0.0 0.1 1.5 3.1 3.6 3.8 3.2 1.3 1.5 0.9 0.4 1.4 5.2 5.1 6.1 6.2 6.2 8.9 9.5 11.9 15.4 18.0 17.2 18.2 18.7 15.7 11.3 14.8 15.5 16.6
0.0 0.0 0.1 0.0 0.0 0.0 0.0 0.0 0.0 0.0 0.0 0.0 0.0 0.0 0.0 0.6 2.6 3.2 10.5 11.7 7.7 10.2 13.4 12.0 11.7 16.1 16.6 15.6 15.1 15.3 13.2 13.9 14.3 16.0 15.8 16.4 18.0 17.8 16.7 16.4 16.2 15.7 15.5 13.7
0.0 0.0 0.0 0.0 0.0 0.0 0.0 0.0 0.0 0.0 0.0 0.0 0.0 0.0 0.0 1.6 3.4 3.6 5.9 9.5 10.9 14.8 17.2 16.9 18.0 18.9 16.1 14.3 12.0 11.9 11.6 10.4 8.8 8.6 10.8 12.4 12.4 12.8 13.8 14.1 14.3 14.7 14.3 14.9
0.0 0.0 0.0 0.1 0.0 0.0 0.0 0.0 0.0 0.0 0.0 0.0 0.1 0.0 0.1 0.4 2.1 4.9 9.2 9.6 11.2 12.8 13.3 11.8 12.3 9.8 7.8 7.4 6.7 6.4 6.3 6.3 5.9 5.7 5.9 6.7 8.8 9.4 10.3 10.9 11.0 11.4 12.2 12.6
0.0 0.0 0.0 0.0 0.0 0.0 0.0 0.0 0.0 0.0 0.1 0.1 0.4 0.7 1.7 4.0 6.5 10.7 13.9 13.6 9.1 7.8 8.7 8.3 6.3 4.7 4.2 4.5 4.0 3.5 3.4 3.6 4.2 5.0 4.6 5.0 6.4 6.8 6.4 6.5 6.9 7.1 8.2 8.9
0.0 0.0 0.0 0.0 0.0 0.0 0.0 0.0 0.3 0.2 1.7 2.2 3.6 6.3 7.5 9.2 8.9 8.3 7.8 7.7 7.9 6.6 7.2 4.3 3.3 2.6 2.3 2.6 2.2 2.6 2.6 3.1 3.0 3.2 3.4 3.3 4.1 4.7 6.0 5.6 5.3 5.9 6.2 6.4
0.0 0.0 0.0 0.0 0.0 0.0 0.4 1.2 1.6 2.9 4.3 4.0 4.2 5.7 5.6 6.5 5.6 5.6 4.8 4.8 4.4 3.9 2.5 2.6 2.2 2.1 1.8 1.4 0.9 1.1 1.4 1.6 2.3 2.9 3.4 3.9 4.7 4.5 4.7 3.9 4.5 5.0 4.8 5.2
0.0 0.1 0.0 0.0 0.8 1.6 2.3 3.7 3.3 4.7 6.6 5.3 4.1 5.2 6.1 8.1 7.3 6.4 4.8 3.0 3.3 2.4 2.1 1.7 1.3 1.3 0.8 1.0 0.9 1.2 2.1 2.5 2.7 3.6 3.2 3.4 3.3 3.3 3.1 3.6 3.6 3.4 4.2 4.2
5.1 5.7 4.8 4.3 4.2 5.7 6.2 6.0 4.5 4.9 5.1 5.7 6.4 6.2 5.9 6.9 6.4 5.3 3.9 3.1 2.9 2.2 1.8 1.5 1.2 1.3 1.1 0.9 1.5 2.0 1.9 2.3 1.9 1.7 1.9 2.2 2.5 2.6 2.3 2.5 2.9 2.7 2.9 2.7
7.8 8.3 8.8 7.7 6.8 7.8 8.4 7.3 7.3 6.1 6.4 6.4 6.2 6.1 5.1 5.6 4.3 3.0 2.6 2.2 1.6 1.7 1.5 1.6 1.5 1.4 1.2 1.7 2.5 2.3 2.3 1.8 1.7 1.6 1.7 1.9 2.0 2.2 1.9 1.9 2.0 2.2 2.2 1.9
7.7 6.9 7.5 7.4 6.3 4.4 5.6 7.4 6.1 5.9 5.2 6.0 5.2 4.9 3.9 3.5 3.4 2.5 1.8 1.8 1.7 1.7 1.5 1.8 1.4 1.1 1.3 2.1 2.0 1.7 1.9 1.4 1.5 1.4 1.4 0.9 1.7 1.5 1.6 1.5 1.4 1.2 1.2 1.3
6.2 5.4 5.0 5.0 4.5 5.3 4.6 4.6 4.1 4.7 4.7 5.7 5.0 4.0 3.0 2.0 1.9 2.6 1.7 2.2 1.9 1.5 1.6 1.4 0.9 1.1 1.5 1.8 1.7 1.3 1.7 1.4 1.3 1.6 1.7 1.6 1.4 1.5 1.3 1.2 1.2 1.2 1.1 0.9
5.9 6.0 5.4 4.7 4.7 4.3 3.8 3.8 4.3 5.3 4.5 4.6 4.1 3.5 2.9 2.5 2.4 2.0 1.6 1.4 0.9 1.0 1.6 1.8 1.4 1.3 1.7 1.5 1.5 1.1 1.4 1.3 1.2 1.3 1.4 1.3 1.3 1.3 1.2 1.2 1.3 1.0 1.1 1.1
5.1 4.7 3.5 3.6 3.9 3.9 3.8 4.0 3.7 4.2 4.0 3.9 3.9 3.0 2.6 2.6 2.4 2.5 1.9 1.9 1.8 1.7 1.8 1.8 1.5 1.3 1.2 1.4 1.6 1.5 1.3 1.1 0.5 1.2 1.0 1.2 1.4 1.5 1.6 1.6 1.6 1.6 1.6 1.8